Content
SEND FEEDBACK

Daily
Averages
Monthly
Summary
United States of America

ST. LOUIS, MISSOURI


Home > North America > United States > Missouri
Elevation: 163 meters     Latitude: 38 45N     Longitude: 090 22W

WEATHER
 
SELECT A DAY
Number of Records: 196,446;   Date Range: 1/1/95 - 8/12/14
 
SHARE

PRINT THIS DATA

[ ← Previous Day ]
WEATHER ALMANAC - MARCH 28, 2013
[ Next Day → ]
[ °C ]   °F
Weather ElementAverageHighLow
Temperature46.4 °F55.9 °F (4:54 pm)36 °F (4:54 am)
Dewpoint31.2 °F36 °F (5:54 pm)25 °F (6:54 am)
Humidity56.6 %76 % (4:54 am)45 % (3:54 pm)
Barometer30.30 in30.37 in (8:54 am)30.23 in (4:54 pm)
Wind Speed6.5 mph11.5 mph (2:54 pm)
Wind Gust18.4 mph (3:54 pm)
Weather ElementAverage
Visibility10 mi
Wind DirectionE (84.8 °)

Weather ElementTotal
Precipitation---
Heating Degree Days19.1 (Base 65)
Averaged from 23 records on March 28, 2013
WEATHER CONDITIONS BREAKOUT
WIND DIRECTION BREAKOUT
WEATHER BY HOUR - MARCH 28, 2013
[ °C ]   °F
Local TimeTemperatureDewpointHumidityBarometerVisibilityWind DirectionWind SpeedGust SpeedPrecipitationEventsConditions
1:54 AM39.0 °F28.9 °F67 %30.34 in10.0 miNE (40°)3.5 mphOvercast
2:54 AM37.0 °F28.9 °F73 %30.34 in10.0 miCalmOvercast
3:54 AM37.0 °F28.0 °F70 %30.33 in10.0 miEast (80°)3.5 mphOvercast
4:54 AM36.0 °F28.9 °F76 %30.34 in10.0 miEast (80°)4.6 mphOvercast
5:54 AM36.0 °F28.0 °F73 %30.35 in10.0 miEast (90°)4.6 mphOvercast
6:54 AM37.0 °F25.0 °F62 %30.36 in10.0 miEast (90°)3.5 mphOvercast
7:54 AM37.0 °F25.0 °F62 %30.36 in10.0 miEast (90°)6.9 mphMostly Cloudy
8:54 AM39.9 °F25.0 °F55 %30.37 in10.0 miEast (100°)6.9 mphMostly Cloudy
9:54 AM42.1 °F26.1 °F53 %30.37 in10.0 miEast (100°)8.1 mphPartly Cloudy
10:54 AM45.0 °F28.0 °F52 %30.36 in10.0 miESE (120°)5.8 mphMostly Cloudy
11:54 AM48.0 °F30.0 °F50 %30.35 in10.0 miEast (90°)10.4 mphMostly Cloudy
12:54 PM51.1 °F32.0 °F48 %30.34 in10.0 miESE (110°)5.8 mphPartly Cloudy
1:54 PM53.1 °F34.0 °F48 %30.30 in10.0 miEast (80°)8.1 mphOvercast
2:54 PM54.0 °F34.0 °F47 %30.28 in10.0 miEast (100°)11.5 mphMostly Cloudy
3:54 PM55.0 °F34.0 °F45 %30.25 in10.0 miESE (110°)6.9 mph18.4 mphMostly Cloudy
4:54 PM55.9 °F35.1 °F45 %30.23 in10.0 miEast (100°)8.1 mphMostly Cloudy
5:54 PM55.9 °F36.0 °F47 %30.23 in10.0 miEast (90°)9.2 mphMostly Cloudy
6:54 PM54.0 °F36.0 °F51 %30.24 in10.0 miEast (90°)10.4 mphMostly Cloudy
7:54 PM52.0 °F35.1 °F53 %30.24 in10.0 miEast (90°)6.9 mphMostly Cloudy
8:54 PM51.1 °F35.1 °F54 %30.25 in10.0 miEast (90°)8.1 mphMostly Cloudy
9:54 PM51.1 °F35.1 °F54 %30.25 in10.0 miEast (100°)6.9 mphOvercast
10:54 PM50.0 °F35.1 °F57 %30.25 in10.0 miVariable4.6 mphMostly Cloudy
11:54 PM48.9 °F35.1 °F59 %30.25 in10.0 miESE (110°)4.6 mphScattered Clouds
Hourly data recorded from KSUS, located miles away from St. Louis, Missouri







STORIES FROM OUR PARTNERS